Location: Unspecified
(0.0000°N, 0.0000°E)
Time: 08:22:38
(UTC+00:00)

PRISM - Visible Passes

Search period start: 09 June 2023 00:00
Search period end: 19 June 2023 00:00
Orbit: 535 x 560 km, 98.2° (Epoch: 08 June)

Date Brightness Start Highest point End Pass type
(mag) Time Alt. Az. Time Alt. Az. Time Alt. Az.
10 Jun ? 19:27:04 10° WSW 19:27:34 10° WSW 19:28:04 10° W visible
11 Jun ? 19:20:45 10° SW 19:22:27 13° WSW 19:24:09 10° WNW visible
12 Jun ? 19:15:01 10° SW 19:17:19 15° WSW 19:19:36 10° WNW visible
13 Jun ? 19:09:26 10° SSW 19:12:09 18° WSW 19:14:52 10° WNW visible
14 Jun ? 19:03:56 10° SSW 19:06:59 22° WSW 19:10:01 10° NW visible
15 Jun ? 05:29:06 10° E 05:29:56 11° ESE 05:30:48 10° ESE visible
15 Jun ? 18:58:29 10° SSW 19:01:47 26° WSW 19:05:04 10° NW visible
16 Jun ? 18:53:04 10° SSW 18:56:34 32° WSW 19:00:02 10° NW visible
17 Jun ? 18:47:40 10° S 18:51:20 39° WSW 18:54:57 10° NNW visible
18 Jun ? 18:42:18 10° S 18:46:04 49° WSW 18:49:49 10° NNW visible
